Regional Weather Roundup
Issued by NWS

Home | Current Version | Previous Version | Graphics & Text | Print | Product List | Glossary On
Versions: 1 2 3 4 5 6 7 8 9 10 11 12 13 14 15 16 17 18 19 20 21 22 23 24 25 26 27 28 29 30 31 32 33 34 35 36 37 38 39 40 41 42 43 44 45 46 47 48 49 50
000
ASUS43 KMKX 280700
RWRWI

WISCONSIN REGIONAL WEATHER ROUNDUP
NATIONAL WEATHER SERVICE MILWAUKEE/SULLIVAN WI
200 AM CDT WED JUN 28 2017

NOTE: "FAIR" INDICATES FEW OR NO CLOUDS BELOW 12,000 FEET WITH NO
SIGNIFICANT WEATHER AND/OR OBSTRUCTIONS TO VISIBILITY.

WIZ001-002-006>008-014>016-023>028-280800-
NORTHWEST WISCONSIN

CITY           SKY/WX    TMP DP  RH WIND       PRES   REMARKS
SUPERIOR ARPT  NOT AVBL
ASHLAND        CLEAR     59  47  64 S8        29.82F
HAYWARD        PTCLDY    59  46  62 SE7       29.80F
SIREN          CLOUDY    63  46  53 CALM      29.77F
CUMBERLAND     PTCLDY    55  46  71 SE6       29.80F
RICE LAKE      PTCLDY    60  48  64 E7        29.83F
CHETEK         PTCLDY    59  49  71 SE6       29.82F
LADYSMITH      MOCLDY    58  48  71 SE7       29.87F
EAU CLAIRE     NOT AVBL
MENOMONIE      CLOUDY    59  50  72 SE8       29.80F
NEW RICHMOND   CLOUDY    63  45  51 SE7       29.78F
OSCEOLA        CLOUDY    62  49  61 SE8       29.79F
$$

WIZ003>005-009-010-017-018-280800-
NORTH CENTRAL WISCONSIN

CITY           SKY/WX    TMP DP  RH WIND       PRES   REMARKS
MANITOWISH WTR CLEAR     55  49  80 S6        29.90F
ARBOR VITAE    CLEAR     57  50  77 SW6       29.91S
WOODRUFF       CLEAR     57  50  77 SW6       29.91S
RHINELANDER    CLEAR     57  48  72 SW7       29.92F
EAGLE RIVER    CLEAR     55  46  69 CALM      29.92S
LAND O LAKES   PTCLDY    54  48  78 S3        29.93S
PHILLIPS       CLOUDY    56  48  74 S6        29.89F
TOMAHAWK       NOT AVBL
MEDFORD        CLOUDY    54  47  78 S7        29.90F
MERRILL        CLEAR     56  49  75 CALM      29.94S
$$

WIZ029-030-035-036-043>047-280800-
CENTRAL WISCONSIN

CITY           SKY/WX    TMP DP  RH WIND       PRES   REMARKS
WAUSAU           N/A    N/A N/A N/A MISG      29.90F
MOSINEE        CLEAR     52  48  87 S7        29.94F
MARSHFIELD     PTCLDY    54  46  74 S6        29.89F
STEVENS POINT  PTCLDY    56  47  70 S7        29.94F
WAUPACA        CLEAR     55  52  88 CALM      29.95F
WAUTOMA        CLOUDY    54  50  86 SE3       29.94F
WISC RAPIDS    CLOUDY    56  48  74 S5        29.92F
CAMP DOUGLAS   PTCLDY    51  47  89 E6        29.89F
$$

WIZ011>013-019>022-031-037>040-048>050-280800-
NORTHEAST WISCONSIN

CITY           SKY/WX    TMP DP  RH WIND       PRES   REMARKS
ANTIGO         CLEAR     52  48  84 S6        29.95S
SHAWANO        CLEAR     59  52  77 CALM      29.95S
OCONTO         CLEAR     57  50  76 S3        29.95S
STURGEON BAY     N/A     60  50  69 S10       29.97F
GREEN BAY      CLEAR     58  53  84 S5        29.96F
MANITOWOC      NOT AVBL
APPLETON       PTCLDY    57  45  62 S6        29.96S
CLINTONVILLE   CLEAR     54  46  76 S3        29.95F
OSHKOSH        CLEAR     55  49  80 S7        29.96F
$$

WIZ032>034-041-042-053>061-280800-
SOUTHWEST WISCONSIN

CITY           SKY/WX    TMP DP  RH WIND       PRES   REMARKS
LA CROSSE      CLOUDY    69  48  47 S7        29.85F
SPARTA         PTCLDY    64  47  52 S12       29.88F
VIROQUA        CLOUDY    61  48  63 SE10      29.88F
BOSCOBEL       CLOUDY    65  47  52 VRB3      29.90F
PRAIRIE DU CHI CLOUDY    64  46  51 SE9       29.87F
PLATTEVILLE    CLEAR     59  50  72 SE10      29.93F
$$

WIZ056-057-062-063-064-067-068-280800-
SOUTH CENTRAL WISCONSIN

CITY           SKY/WX    TMP DP  RH WIND       PRES   REMARKS
REEDSBURG      CLEAR     59  47  64 S8        29.92F
BARABOO/DELLS  CLEAR     57  46  67 S3        29.94F
LONE ROCK      NOT AVBL
MINERAL POINT  CLOUDY    61  48  63 SE7       29.94F
MADISON        CLEAR     61  49  64 S8        29.95F
MIDDLETON      CLEAR     59  48  67 S5        29.97F
WATERTOWN      NOT AVBL
MONROE         PTCLDY    59  45  58 S9        29.97F
JANESVILLE     CLEAR     55  46  71 SE7       29.99F
$$

WIZ051-052-058>065-066-070>072-280800-
SOUTHEAST WISCONSIN

CITY           SKY/WX    TMP DP  RH WIND       PRES   REMARKS
MILWAUKEE      PTCLDY    60  49  66 S6        30.02F
WAUKESHA       PTCLDY    55  46  71 S5        30.03S
MILWAUKEE/TIMM CLEAR     57  45  62 S5        30.03S
RACINE         CLEAR     59  47  64 SW6       30.03F
KENOSHA        CLEAR     57  47  69 S5        30.02F
FOND DU LAC    CLEAR     57  48  72 S7        29.98F
SHEBOYGAN      CLEAR     54  52  93 SW6       30.00F
WEST BEND      PTCLDY    54  50  87 CALM      30.01F
JUNEAU         PTCLDY    58  48  69 S7        30.00F
$$

LSZ147-162-280800-
LAKE SUPERIOR

STATION/POSITION TIME  TEMP    WIND        PRES    WAVE
                       AIR SEA DIR/SP/G            HT/PER
                 (UTC) (F)     (DEG/KT/KT) (MB)    (FT/S)
W MID LAKE BUOY  0550   49 39  210/ 12/ 12 1010.3F   0
DEVILS ISLAND    0600   64     190/ 12/ 18 1009.7F
SAXON HARBOR     0640   62     180/  3/  6 1009.8F
$$

LMZ867-665-643>646-280800-
LAKE MICHIGAN

STATION/POSITION TIME  TEMP    WIND        PRES    WAVE
                       AIR SEA DIR/SP/G            HT/PER
                 (UTC) (F)     (DEG/KT/KT) (MB)    (FT/S)
CHAMBERS ISLAND  0640   65     170/  5/ 10 1013.2F
S GREEN BAY BUOY 0630   66     200/ 14/ 16 1014.0F
N MID LAKE BUOY  0550   57 55  190/ 14/ 14 1015.1S   3/ 5
NORTHPORT PIER   0640   61     180/  3/  6 1013.9F
KEWAUNEE LAKESHO 0630   62     210/ 10/ 13 1014.6F
SHEBOYGAN LAKESH 0600   61     220/  9/ 10 1015.8R
PORT WASHINGTON  0630   57     250/  3/  5 1016.9F
ATWATER BUOY     0509   61 56  170/ 10/ 10 1016.6
MILWAUKEE LAKESH 0640   63     220/  7/  8   N/A
S MID LAKE BUOY  0550   64 61  170/ 12/ 14 1017.1S   1/ 3
KENOSHA   LAKESH 0600   65     220/  7/ 10 1016.9
$$

TC  - TEMPERATURE IN CELSIUS
VSB - VISIBILITY IN STATUTE MILES
WCI - WIND CHILL INDEX
HX  - HEAT INDEX





USA.gov is the U.S. government's official web portal to all federal, state and local government web resources and services.